No particular awareness of the weather is required.    There are no Weather-warnings




My webcam more information My webcam


Meteosat more information Meteosat


Radar de pluja more information rain snow radar


Visita la nostra xarxa de llocs de meteo:

Template documentation
and downloads

And another site



Select another period ( hide this area )

Unitats Periode Custom range Directly to
Mètric Imperial Tant
Diari Setmana Mensual Anual
use both date-selectors for a custom range
previous Dia
With this date

WeatherUnderground graphs for this period ( click here )


Warning: Division by zero in /var/www/vhosts/5/103384/webspace/httpdocs/santgenismeteo.org/weather28/wu/WU-History4.php on line 835
Diari Resum Dimecres 19 Setembre 2018
Temps Temp. ( °C ) Dew pt. ( °C ) Vent ( km/h ) des Rafegues ( km/h ) Pression baro ( hPa ) Humid.( % ) Rainrate ( cm ) Solar ( W/m2 )
Maxima28,6 19,5 13,0 Est ( 168/286 ) 13,0 1019,5 91 - 0
Media23,4 18,3 1,2 calma #171/246 2,9 1018,2 74 - 0 #0/246
Minima19,8 17,2 -   0,0 1016,5 55 -  
Diari Tabular details for Dimecres 19 Setembre 2018
Temps Temp. ( °C ) Dew pt. ( °C ) Vent ( km/h ) des Rafegues ( km/h ) Pression baro ( hPa ) Humid.( % ) Rainrate ( cm ) Solar ( W/m2 )
00:04 21,2 18,4   calma 6,9 1017,5 84 - -
00:09 21,2 18,6 5,8 Est 5,8 1017,5 85 - -
00:14 21,2 18,6   calma 1,4 1017,5 85 - -
00:19 21,1 18,5   calma 1,4 1017,5 85 - -
00:24 21,1 18,7   calma   1017,5 86 - -
00:29 21,1 18,7   calma   1017,5 86 - -
00:34 21,1 18,7 4,3 West 4,3 1017,5 86 - -
00:39 21,1 18,9   calma 1,8 1017,5 87 - -
00:44 21,0 18,6   calma 2,1 1017,5 86 - -
00:49 21,0 18,6 1,8 West 4,0 1017,5 86 - -
00:54 20,9 18,7 1,8 Est 3,2 1017,5 87 - -
00:59 20,9 18,7   calma 2,1 1017,5 87 - -
01:04 20,8 18,4   calma 2,1 1017,5 86 - -
01:09 20,8 18,4   calma 1,4 1017,5 86 - -
01:14 20,8 18,4   calma   1017,5 86 - -
01:19 20,7 18,3   calma 1,8 1017,5 86 - -
01:24 20,7 18,3   calma   1017,5 86 - -
01:29 20,7 18,5   calma   1017,5 87 - -
01:34 20,7 18,5   calma 1,8 1017,5 87 - -
01:39 20,6 18,4   calma   1017,5 87 - -
01:44 20,6 18,4   calma   1017,5 87 - -
01:49 20,6 18,4   calma 1,8 1017,5 87 - -
01:54 20,5 18,4 1,8 Est 4,3 1017,5 88 - -
01:59 20,5 18,4   calma 4,0 1017,5 88 - -
02:04 20,4 18,3   calma   1017,5 88 - -
02:09 20,4 18,3   calma 4,3 1017,5 88 - -
02:14 20,4 18,3   calma 4,0 1018,5 88 - -
02:19 20,4 18,5   calma 1,8 1018,5 89 - -
02:24 20,3 18,4   calma 4,0 1018,5 89 - -
02:29 20,4 18,7   calma   1017,5 90 - -
02:34 20,4 18,9   calma 4,0 1017,5 91 - -
02:39 20,4 18,7   calma 3,2 1017,5 90 - -
02:44 20,4 18,7   calma   1017,5 90 - -
02:49 20,4 18,9   calma   1017,5 91 - -
02:54 20,4 18,7 3,5 Est 3,5 1017,5 90 - -
02:59 20,4 18,7   calma   1017,5 90 - -
03:04 20,4 18,7 2,6 Est 2,6 1017,5 90 - -
03:09 20,3 18,6   calma 2,1 1017,5 90 - -
03:14 20,3 18,6   calma 2,1 1017,5 90 - -
03:19 20,3 18,6 2,1 Est 2,1 1017,5 90 - -
03:24 20,2 18,5 1,8 Est 1,8 1017,5 90 - -
03:29 20,2 18,5   calma 2,6 1017,5 90 - -
03:34 20,2 18,3   calma   1017,5 89 - -
03:39 20,3 18,4   calma 2,6 1017,5 89 - -
03:44 20,3 18,4   calma 4,0 1017,5 89 - -
03:49 20,4 18,5 4,3 Est 4,7 1017,5 89 - -
03:54 20,5 18,4   calma 3,5 1017,5 88 - -
03:59 20,5 18,4   calma 4,7 1017,5 88 - -
04:04 20,5 18,4   calma 1,4 1017,5 88 - -
04:09 20,4 18,2 3,2 Est 4,3 1017,5 87 - -
04:14 20,4 18,2   calma 4,3 1017,5 87 - -
04:19 20,5 18,3 4,3 NE 6,9 1017,5 87 - -
04:24 20,6 18,2 4,0 Est 4,0 1017,5 86 - -
04:29 20,5 18,1 4,0 ENE 5,5 1017,5 86 - -
04:34 20,4 18,0   calma 2,6 1017,5 86 - -
04:39 20,3 17,9 1,4 West 1,8 1017,5 86 - -
04:44 20,2 17,8 2,6 NW 2,6 1017,5 86 - -
04:49 20,1 17,7 1,4 Est 6,4 1017,5 86 - -
04:54 20,0 17,8   calma 6,9 1017,5 87 - -
04:59 20,0 17,8 3,2 Est 9,7 1017,5 87 - -
05:04 19,9 17,9   calma 9,7 1017,5 88 - -
05:09 19,9 17,9 7,6 Est 7,6 1017,5 88 - -
05:14 19,8 17,9 7,6 Est 8,7 1017,5 89 - -
05:19 19,8 17,9 9,0 Est 13,0 1017,5 89 - -
05:24 19,8 17,9 2,1 Est 5,5 1017,5 89 - -
05:29 20,0 18,1 4,3 Est 5,5 1017,5 89 - -
05:34 20,2 18,3 4,3 Est 7,6 1017,5 89 - -
05:39 20,2 18,1   calma 6,4 1017,5 88 - -
05:44 20,3 18,2 5,0 Est 6,9 1017,5 88 - -
05:49 20,4 18,2 5,5 Est 5,5 1017,5 87 - -
05:54 20,4 18,0   calma 6,9 1017,5 86 - -
05:59 20,5 17,9 5,5 Est 7,9 1017,5 85 - -
06:04 20,5 17,9 3,2 Est 7,6 1017,5 85 - -
06:09 20,6 17,8 2,1 Est 5,5 1017,5 84 - -
06:14 20,7 17,7   calma 7,6 1017,5 83 - -
06:19 20,7 17,7   calma 5,5 1017,5 83 - -
06:24 20,7 17,5   calma 6,9 1017,5 82 - -
06:29 20,8 17,6   calma 5,5 1017,5 82 - -
06:34 20,8 17,6 3,5 ESE 5,5 1017,5 82 - -
06:39 20,7 17,5   calma 3,5 1017,5 82 - -
06:44 20,7 17,5   calma   1018,5 82 - -
06:49 20,8 17,6   calma 3,2 1018,5 82 - -
06:54 20,7 17,5   calma   1018,5 82 - -
06:59 20,7 17,5   calma 4,3 1016,5 82 - -
07:04 20,6 17,6   calma   1016,5 83 - -
07:09 20,5 17,5   calma 1,4 1016,5 83 - -
07:14 20,4 17,4   calma 4,0 1017,5 83 - -
07:19 20,3 17,5   calma   1017,5 84 - -
07:24 20,2 17,4   calma   1017,5 84 - -
07:29 20,1 17,5   calma   1016,5 85 - -
07:34 20,1 17,5   calma 2,1 1016,5 85 - -
07:39 20,1 17,5 1,8 Est 1,8 1016,5 85 - -
07:44 20,1 17,5   calma   1016,5 85 - -
07:49 20,2 17,6   calma 4,7 1016,5 85 - -
07:54 20,2 17,6   calma 1,8 1016,5 85 - -
07:59 20,4 17,8   calma   1017,5 85 - -
08:04 20,4 17,6 1,4 West 1,4 1017,5 84 - -
08:09 20,4 17,6   calma 5,5 1017,5 84 - -
08:14 20,4 17,6   calma   1017,5 84 - -
08:19 20,4 17,6   calma   1017,5 84 - -
08:24 20,5 17,7   calma 2,1 1017,5 84 - -
08:29 20,6 17,8   calma 4,0 1017,5 84 - -
08:34 20,7 17,7   calma   1017,5 83 - -
08:39 20,8 17,8   calma   1017,5 83 - -
08:44 21,0 17,8 3,2 ESE 3,2 1017,5 82 - -
08:49 21,3 17,7   calma 4,3 1017,5 80 - -
08:54 21,4 18,0   calma 4,7 1017,5 81 - -
08:59 21,5 17,9   calma   1017,5 80 - -
09:04 21,7 18,1   calma 2,1 1017,5 80 - -
09:09 21,8 17,8   calma 2,6 1017,5 78 - -
09:14 21,9 18,1 4,3 ENE 4,3 1018,5 79 - -
09:19 22,0 17,8   calma 4,3 1018,5 77 - -
09:24 22,1 17,9   calma   1018,5 77 - -
09:29 22,1 17,5 5,8 Est 5,8 1018,5 75 - -
09:34 22,2 17,6 5,5 Est 5,5 1018,5 75 - -
09:39 22,2 17,3   calma 5,5 1018,5 74 - -
09:44 22,3 17,4   calma   1018,5 74 - -
09:49 22,3 17,7 1,4 SE 6,9 1018,5 75 - -
09:54 22,4 17,7   calma 3,2 1018,5 75 - -
09:59 22,5 17,8   calma   1018,5 75 - -
10:04 22,6 17,9 2,6 SE 2,6 1018,5 75 - -
10:09 22,7 17,8   calma   1018,5 74 - -
10:14 22,8 17,9   calma 4,0 1019,5 74 - -
10:19 22,9 18,0   calma   1019,5 74 - -
10:24 23,0 17,9   calma 3,5 1019,5 73 - -
10:29 23,1 17,8   calma 4,0 1019,5 72 - -
10:34 23,1 17,6   calma   1019,5 71 - -
10:39 23,2 17,6 5,5 Est 5,5 1019,5 71 - -
10:44 23,2 17,4 2,6 Est 5,5 1019,5 70 - -
10:49 23,4 17,6   calma 2,6 1019,5 70 - -
10:54 23,5 17,5   calma 1,8 1019,5 69 - -
10:59 23,6 17,8   calma   1019,5 70 - -
11:04 23,7 17,7 1,4 SW 1,4 1019,5 69 - -
11:09 23,9 17,9   calma 1,8 1019,5 69 - -
11:14 24,1 17,6   calma   1019,5 67 - -
11:19 24,2 17,9   calma 1,4 1019,5 68 - -
11:24 24,3 18,0 2,1 SSW 2,1 1019,5 68 - -
11:29 24,4 17,9 1,4 ESE 1,8 1019,5 67 - -
11:34 24,6 18,1 1,4 Est 2,1 1019,5 67 - -
11:39 24,7 17,9   calma   1019,5 66 - -
11:44 24,8 18,0   calma 1,8 1019,5 66 - -
11:49 24,9 18,1 1,4 ESE 4,7 1019,5 66 - -
11:54 25,0 17,7   calma 1,4 1019,5 64 - -
11:59 25,2 17,9 1,4 ESE 2,6 1019,5 64 - -
12:04 25,2 17,4   calma   1019,5 62 - -
12:09 25,4 17,6   calma   1019,5 62 - -
12:14 25,5 17,7   calma   1019,5 62 - -
12:19 25,7 17,4   calma   1019,5 60 - -
12:24 25,9 17,8   calma 1,8 1019,5 61 - -
12:29 26,1 17,5   calma   1019,5 59 - -
12:34 26,1 17,2   calma   1019,5 58 - -
12:39 26,2 17,6   calma   1019,5 59 - -
12:44 26,4 17,5   calma 4,3 1019,5 58 - -
12:49 26,4 17,7 6,1 SE 6,4 1019,5 59 - -
12:54 26,5 18,1   calma 2,6 1019,5 60 - -
12:59 26,5 18,1 4,0 ESE 4,3 1019,5 60 - -
13:04 26,6 18,5   calma   1019,5 61 - -
13:09 26,8 18,4 1,4 ESE 1,4 1019,5 60 - -
13:14 26,9 18,7   calma   1019,5 61 - -
13:19 26,8 18,4   calma   1019,5 60 - -
13:24 27,0 18,6   calma   1019,5 60 - -
13:29 27,0 18,8   calma   1019,5 61 - -
13:34 27,1 19,2 2,6 West 4,0 1019,5 62 - -
13:39 27,1 19,2   calma   1019,5 62 - -
13:44 27,3 19,4 4,7 SE 9,3 1019,5 62 - -
13:49 27,4 19,2 5,8 SE 6,4 1019,5 61 - -
13:54 27,6 19,4 7,6 ESE 7,6 1019,5 61 - -
13:59 27,7 19,2 1,8 ESE 1,8 1019,5 60 - -
14:04 27,6 19,1   calma 5,0 1019,5 60 - -
14:09 27,6 19,1   calma 5,8 1019,5 60 - -
14:14 27,5 18,8 4,0 ESE 5,5 1019,5 59 - -
14:19 27,5 18,8   calma 6,4 1019,5 59 - -
14:24 27,6 18,9   calma   1019,5 59 - -
14:29 27,5 18,5   calma 5,8 1018,5 58 - -
14:34 27,5 18,8 4,3 ESE 4,3 1018,5 59 - -
14:39 27,5 18,8   calma 5,5 1018,5 59 - -
14:44 27,6 18,9   calma 4,0 1018,5 59 - -
14:49 27,5 18,8 4,0 Est 4,3 1018,5 59 - -
14:54 27,7 19,0   calma 3,2 1018,5 59 - -
14:59 27,7 19,0 6,9 SE 6,9 1018,5 59 - -
15:04 27,7 19,0   calma   1018,5 59 - -
15:09 27,5 18,5 4,7 ESE 6,9 1018,5 58 - -
15:14 27,6 18,9   calma 2,6 1018,5 59 - -
15:19 27,9 19,1   calma   1018,5 59 - -
15:24 28,0 19,0   calma   1018,5 58 - -
15:29 28,1 18,8 9,0 Est 9,0 1018,5 57 - -
15:34 28,2 18,6 2,1 WSW 4,3 1018,5 56 - -
15:39 28,2 18,9   calma 1,4 1018,5 57 - -
15:44 28,2 18,6   calma 4,0 1018,5 56 - -
15:49 28,3 18,4   calma 4,0 1018,5 55 - -
15:54 28,6 19,0   calma 8,7 1018,5 56 - -
15:59 28,6 19,0 5,8 SE 5,8 1018,5 56 - -
16:04 28,4 18,8   calma 4,0 1018,5 56 - -
16:09 27,8 18,5 13,0 Est 13,0 1018,5 57 - -
16:14 27,7 18,7 1,8 Est 5,0 1018,5 58 - -
16:19 28,1 19,1   calma 1,8 1018,5 58 - -
16:24 28,2 19,2   calma   1018,5 58 - -
16:29 28,3 19,2   calma 4,7 1018,5 58 - -
16:34 28,0 19,0   calma   1018,5 58 - -
16:39 27,8 19,1   calma   1018,5 59 - -
16:44 27,4 18,9   calma   1018,5 60 - -
16:49 27,5 19,0 4,7 Est 4,7 1018,5 60 - -
16:54 27,4 18,9 4,3 Est 4,3 1018,5 60 - -
16:59 27,3 19,1 4,7 Est 6,9 1018,5 61 - -
17:04 27,3 19,1   calma   1018,5 61 - -
17:09 27,7 19,5   calma 6,4 1018,5 61 - -
17:14 27,6 19,4 5,5 Est 5,5 1017,5 61 - -
17:19 26,9 19,0   calma   1017,5 62 - -
17:24 26,8 19,2   calma   1017,5 63 - -
17:29 27,1 19,4   calma   1017,5 63 - -
17:34 26,9 19,3   calma   1017,5 63 - -
17:39 26,7 19,1   calma 3,2 1017,5 63 - -
17:44 26,8 19,2   calma   1018,5 63 - -
17:49 26,5 19,1   calma 5,0 1018,5 64 - -
17:54 26,5 19,1 3,5 Est 4,0 1018,5 64 - -
17:59 26,4 19,0 1,8 ESE 4,0 1017,5 64 - -
18:04 26,9 19,5   calma   1017,5 64 - -
18:09 26,8 19,4 2,1 SE 6,1 1017,5 64 - -
18:14 26,6 19,2   calma 7,6 1017,5 64 - -
18:19 26,1 18,8   calma   1017,5 64 - -
18:24 25,9 18,8 3,2 Est 3,2 1017,5 65 - -
18:29 25,7 18,9 4,3 ESE 4,3 1018,5 66 - -
18:34 25,4 18,8   calma   1018,5 67 - -
18:39 25,1 18,8   calma   1018,5 68 - -
18:44 24,9 18,8   calma   1018,5 69 - -
18:49 24,8 18,7   calma   1018,5 69 - -
18:54 24,8 18,7   calma   1018,5 69 - -
18:59 24,7 18,9   calma   1018,5 70 - -
19:04 24,6 18,8   calma   1018,5 70 - -
19:09 24,5 18,7   calma   1018,5 70 - -
19:14 24,5 18,7 4,3 ESE 4,3 1018,5 70 - -
19:19 24,4 18,6   calma   1018,5 70 - -
19:24 24,4 18,6 1,4 WSW 4,0 1018,5 70 - -
19:29 24,3 18,7   calma   1018,5 71 - -
19:34 24,3 18,7   calma   1018,5 71 - -
19:39 24,2 18,6   calma   1018,5 71 - -
19:44 24,1 18,7   calma 2,1 1018,5 72 - -
19:49 24,1 18,7   calma 4,0 1018,5 72 - -
19:54 24,1 19,0   calma   1018,5 73 - -
19:59 24,0 18,9   calma   1018,5 73 - -
20:04 23,9 18,8   calma   1018,5 73 - -
20:09 23,8 18,9   calma   1018,5 74 - -
20:14 23,7 19,0   calma 2,6 1018,5 75 - -
20:19 23,5 19,0   calma   1018,5 76 - -
20:24 23,4 18,9   calma   1018,5 76 - -
20:29 23,2 18,9   calma   1018,5 77 - -
Diari Resum Dimecres 19 Setembre 2018
Temps Temp. ( °C ) Dew pt. ( °C ) Vent ( km/h ) des Rafegues ( km/h ) Pression baro ( hPa ) Humid.( % ) Rainrate ( cm ) Solar ( W/m2 )
Maxima28,6 19,5 13,0 Est ( 168/286 ) 13,0 1019,5 91 - 0
Media23,4 18,3 1,2 calma #171/246 2,9 1018,2 74 - 0 #0/246
Minima19,8 17,2 -   0,0 1016,5 55 -  
Diari Tabular details for Dimecres 19 Setembre 2018
Temps Temp. ( °C ) Dew pt. ( °C ) Vent ( km/h ) des Rafegues ( km/h ) Pression baro ( hPa ) Humid.( % ) Rainrate ( cm ) Solar ( W/m2 )
00:04 21,2 18,4   calma 6,9 1017,5 84 - -
00:09 21,2 18,6 5,8 Est 5,8 1017,5 85 - -
00:14 21,2 18,6   calma 1,4 1017,5 85 - -
00:19 21,1 18,5   calma 1,4 1017,5 85 - -
00:24 21,1 18,7   calma   1017,5 86 - -
00:29 21,1 18,7   calma   1017,5 86 - -
00:34 21,1 18,7 4,3 West 4,3 1017,5 86 - -
00:39 21,1 18,9   calma 1,8 1017,5 87 - -
00:44 21,0 18,6   calma 2,1 1017,5 86 - -
00:49 21,0 18,6 1,8 West 4,0 1017,5 86 - -
00:54 20,9 18,7 1,8 Est 3,2 1017,5 87 - -
00:59 20,9 18,7   calma 2,1 1017,5 87 - -
01:04 20,8 18,4   calma 2,1 1017,5 86 - -
01:09 20,8 18,4   calma 1,4 1017,5 86 - -
01:14 20,8 18,4   calma   1017,5 86 - -
01:19 20,7 18,3   calma 1,8 1017,5 86 - -
01:24 20,7 18,3   calma   1017,5 86 - -
01:29 20,7 18,5   calma   1017,5 87 - -
01:34 20,7 18,5   calma 1,8 1017,5 87 - -
01:39 20,6 18,4   calma   1017,5 87 - -
01:44 20,6 18,4   calma   1017,5 87 - -
01:49 20,6 18,4   calma 1,8 1017,5 87 - -
01:54 20,5 18,4 1,8 Est 4,3 1017,5 88 - -
01:59 20,5 18,4   calma 4,0 1017,5 88 - -
02:04 20,4 18,3   calma   1017,5 88 - -
02:09 20,4 18,3   calma 4,3 1017,5 88 - -
02:14 20,4 18,3   calma 4,0 1018,5 88 - -
02:19 20,4 18,5   calma 1,8 1018,5 89 - -
02:24 20,3 18,4   calma 4,0 1018,5 89 - -
02:29 20,4 18,7   calma   1017,5 90 - -
02:34 20,4 18,9   calma 4,0 1017,5 91 - -
02:39 20,4 18,7   calma 3,2 1017,5 90 - -
02:44 20,4 18,7   calma   1017,5 90 - -
02:49 20,4 18,9   calma   1017,5 91 - -
02:54 20,4 18,7 3,5 Est 3,5 1017,5 90 - -
02:59 20,4 18,7   calma   1017,5 90 - -
03:04 20,4 18,7 2,6 Est 2,6 1017,5 90 - -
03:09 20,3 18,6   calma 2,1 1017,5 90 - -
03:14 20,3 18,6   calma 2,1 1017,5 90 - -
03:19 20,3 18,6 2,1 Est 2,1 1017,5 90 - -
03:24 20,2 18,5 1,8 Est 1,8 1017,5 90 - -
03:29 20,2 18,5   calma 2,6 1017,5 90 - -
03:34 20,2 18,3   calma   1017,5 89 - -
03:39 20,3 18,4   calma 2,6 1017,5 89 - -
03:44 20,3 18,4   calma 4,0 1017,5 89 - -
03:49 20,4 18,5 4,3 Est 4,7 1017,5 89 - -
03:54 20,5 18,4   calma 3,5 1017,5 88 - -
03:59 20,5 18,4   calma 4,7 1017,5 88 - -
04:04 20,5 18,4   calma 1,4 1017,5 88 - -
04:09 20,4 18,2 3,2 Est 4,3 1017,5 87 - -
04:14 20,4 18,2   calma 4,3 1017,5 87 - -
04:19 20,5 18,3 4,3 NE 6,9 1017,5 87 - -
04:24 20,6 18,2 4,0 Est 4,0 1017,5 86 - -
04:29 20,5 18,1 4,0 ENE 5,5 1017,5 86 - -
04:34 20,4 18,0   calma 2,6 1017,5 86 - -
04:39 20,3 17,9 1,4 West 1,8 1017,5 86 - -
04:44 20,2 17,8 2,6 NW 2,6 1017,5 86 - -
04:49 20,1 17,7 1,4 Est 6,4 1017,5 86 - -
04:54 20,0 17,8   calma 6,9 1017,5 87 - -
04:59 20,0 17,8 3,2 Est 9,7 1017,5 87 - -
05:04 19,9 17,9   calma 9,7 1017,5 88 - -
05:09 19,9 17,9 7,6 Est 7,6 1017,5 88 - -
05:14 19,8 17,9 7,6 Est 8,7 1017,5 89 - -
05:19 19,8 17,9 9,0 Est 13,0 1017,5 89 - -
05:24 19,8 17,9 2,1 Est 5,5 1017,5 89 - -
05:29 20,0 18,1 4,3 Est 5,5 1017,5 89 - -
05:34 20,2 18,3 4,3 Est 7,6 1017,5 89 - -
05:39 20,2 18,1   calma 6,4 1017,5 88 - -
05:44 20,3 18,2 5,0 Est 6,9 1017,5 88 - -
05:49 20,4 18,2 5,5 Est 5,5 1017,5 87 - -
05:54 20,4 18,0   calma 6,9 1017,5 86 - -
05:59 20,5 17,9 5,5 Est 7,9 1017,5 85 - -
06:04 20,5 17,9 3,2 Est 7,6 1017,5 85 - -
06:09 20,6 17,8 2,1 Est 5,5 1017,5 84 - -
06:14 20,7 17,7   calma 7,6 1017,5 83 - -
06:19 20,7 17,7   calma 5,5 1017,5 83 - -
06:24 20,7 17,5   calma 6,9 1017,5 82 - -
06:29 20,8 17,6   calma 5,5 1017,5 82 - -
06:34 20,8 17,6 3,5 ESE 5,5 1017,5 82 - -
06:39 20,7 17,5   calma 3,5 1017,5 82 - -
06:44 20,7 17,5   calma   1018,5 82 - -
06:49 20,8 17,6   calma 3,2 1018,5 82 - -
06:54 20,7 17,5   calma   1018,5 82 - -
06:59 20,7 17,5   calma 4,3 1016,5 82 - -
07:04 20,6 17,6   calma   1016,5 83 - -
07:09 20,5 17,5   calma 1,4 1016,5 83 - -
07:14 20,4 17,4   calma 4,0 1017,5 83 - -
07:19 20,3 17,5   calma   1017,5 84 - -
07:24 20,2 17,4   calma   1017,5 84 - -
07:29 20,1 17,5   calma   1016,5 85 - -
07:34 20,1 17,5   calma 2,1 1016,5 85 - -
07:39 20,1 17,5 1,8 Est 1,8 1016,5 85 - -
07:44 20,1 17,5   calma   1016,5 85 - -
07:49 20,2 17,6   calma 4,7 1016,5 85 - -
07:54 20,2 17,6   calma 1,8 1016,5 85 - -
07:59 20,4 17,8   calma   1017,5 85 - -
08:04 20,4 17,6 1,4 West 1,4 1017,5 84 - -
08:09 20,4 17,6   calma 5,5 1017,5 84 - -
08:14 20,4 17,6   calma   1017,5 84 - -
08:19 20,4 17,6   calma   1017,5 84 - -
08:24 20,5 17,7   calma 2,1 1017,5 84 - -
08:29 20,6 17,8   calma 4,0 1017,5 84 - -
08:34 20,7 17,7   calma   1017,5 83 - -
08:39 20,8 17,8   calma   1017,5 83 - -
08:44 21,0 17,8 3,2 ESE 3,2 1017,5 82 - -
08:49 21,3 17,7   calma 4,3 1017,5 80 - -
08:54 21,4 18,0   calma 4,7 1017,5 81 - -
08:59 21,5 17,9   calma   1017,5 80 - -
09:04 21,7 18,1   calma 2,1 1017,5 80 - -
09:09 21,8 17,8   calma 2,6 1017,5 78 - -
09:14 21,9 18,1 4,3 ENE 4,3 1018,5 79 - -
09:19 22,0 17,8   calma 4,3 1018,5 77 - -
09:24 22,1 17,9   calma   1018,5 77 - -
09:29 22,1 17,5 5,8 Est 5,8 1018,5 75 - -
09:34 22,2 17,6 5,5 Est 5,5 1018,5 75 - -
09:39 22,2 17,3   calma 5,5 1018,5 74 - -
09:44 22,3 17,4   calma   1018,5 74 - -
09:49 22,3 17,7 1,4 SE 6,9 1018,5 75 - -
09:54 22,4 17,7   calma 3,2 1018,5 75 - -
09:59 22,5 17,8   calma   1018,5 75 - -
10:04 22,6 17,9 2,6 SE 2,6 1018,5 75 - -
10:09 22,7 17,8   calma   1018,5 74 - -
10:14 22,8 17,9   calma 4,0 1019,5 74 - -
10:19 22,9 18,0   calma   1019,5 74 - -
10:24 23,0 17,9   calma 3,5 1019,5 73 - -
10:29 23,1 17,8   calma 4,0 1019,5 72 - -
10:34 23,1 17,6   calma   1019,5 71 - -
10:39 23,2 17,6 5,5 Est 5,5 1019,5 71 - -
10:44 23,2 17,4 2,6 Est 5,5 1019,5 70 - -
10:49 23,4 17,6   calma 2,6 1019,5 70 - -
10:54 23,5 17,5   calma 1,8 1019,5 69 - -
10:59 23,6 17,8   calma   1019,5 70 - -
11:04 23,7 17,7 1,4 SW 1,4 1019,5 69 - -
11:09 23,9 17,9   calma 1,8 1019,5 69 - -
11:14 24,1 17,6   calma   1019,5 67 - -
11:19 24,2 17,9   calma 1,4 1019,5 68 - -
11:24 24,3 18,0 2,1 SSW 2,1 1019,5 68 - -
11:29 24,4 17,9 1,4 ESE 1,8 1019,5 67 - -
11:34 24,6 18,1 1,4 Est 2,1 1019,5 67 - -
11:39 24,7 17,9   calma   1019,5 66 - -
11:44 24,8 18,0   calma 1,8 1019,5 66 - -
11:49 24,9 18,1 1,4 ESE 4,7 1019,5 66 - -
11:54 25,0 17,7   calma 1,4 1019,5 64 - -
11:59 25,2 17,9 1,4 ESE 2,6 1019,5 64 - -
12:04 25,2 17,4   calma   1019,5 62 - -
12:09 25,4 17,6   calma   1019,5 62 - -
12:14 25,5 17,7   calma   1019,5 62 - -
12:19 25,7 17,4   calma   1019,5 60 - -
12:24 25,9 17,8   calma 1,8 1019,5 61 - -
12:29 26,1 17,5   calma   1019,5 59 - -
12:34 26,1 17,2   calma   1019,5 58 - -
12:39 26,2 17,6   calma   1019,5 59 - -
12:44 26,4 17,5   calma 4,3 1019,5 58 - -
12:49 26,4 17,7 6,1 SE 6,4 1019,5 59 - -
12:54 26,5 18,1   calma 2,6 1019,5 60 - -
12:59 26,5 18,1 4,0 ESE 4,3 1019,5 60 - -
13:04 26,6 18,5   calma   1019,5 61 - -
13:09 26,8 18,4 1,4 ESE 1,4 1019,5 60 - -
13:14 26,9 18,7   calma   1019,5 61 - -
13:19 26,8 18,4   calma   1019,5 60 - -
13:24 27,0 18,6   calma   1019,5 60 - -
13:29 27,0 18,8   calma   1019,5 61 - -
13:34 27,1 19,2 2,6 West 4,0 1019,5 62 - -
13:39 27,1 19,2   calma   1019,5 62 - -
13:44 27,3 19,4 4,7 SE 9,3 1019,5 62 - -
13:49 27,4 19,2 5,8 SE 6,4 1019,5 61 - -
13:54 27,6 19,4 7,6 ESE 7,6 1019,5 61 - -
13:59 27,7 19,2 1,8 ESE 1,8 1019,5 60 - -
14:04 27,6 19,1   calma 5,0 1019,5 60 - -
14:09 27,6 19,1   calma 5,8 1019,5 60 - -
14:14 27,5 18,8 4,0 ESE 5,5 1019,5 59 - -
14:19 27,5 18,8   calma 6,4 1019,5 59 - -
14:24 27,6 18,9   calma   1019,5 59 - -
14:29 27,5 18,5   calma 5,8 1018,5 58 - -
14:34 27,5 18,8 4,3 ESE 4,3 1018,5 59 - -
14:39 27,5 18,8   calma 5,5 1018,5 59 - -
14:44 27,6 18,9   calma 4,0 1018,5 59 - -
14:49 27,5 18,8 4,0 Est 4,3 1018,5 59 - -
14:54 27,7 19,0   calma 3,2 1018,5 59 - -
14:59 27,7 19,0 6,9 SE 6,9 1018,5 59 - -
15:04 27,7 19,0   calma   1018,5 59 - -
15:09 27,5 18,5 4,7 ESE 6,9 1018,5 58 - -
15:14 27,6 18,9   calma 2,6 1018,5 59 - -
15:19 27,9 19,1   calma   1018,5 59 - -
15:24 28,0 19,0   calma   1018,5 58 - -
15:29 28,1 18,8 9,0 Est 9,0 1018,5 57 - -
15:34 28,2 18,6 2,1 WSW 4,3 1018,5 56 - -
15:39 28,2 18,9   calma 1,4 1018,5 57 - -
15:44 28,2 18,6   calma 4,0 1018,5 56 - -
15:49 28,3 18,4   calma 4,0 1018,5 55 - -
15:54 28,6 19,0   calma 8,7 1018,5 56 - -
15:59 28,6 19,0 5,8 SE 5,8 1018,5 56 - -
16:04 28,4 18,8   calma 4,0 1018,5 56 - -
16:09 27,8 18,5 13,0 Est 13,0 1018,5 57 - -
16:14 27,7 18,7 1,8 Est 5,0 1018,5 58 - -
16:19 28,1 19,1   calma 1,8 1018,5 58 - -
16:24 28,2 19,2   calma   1018,5 58 - -
16:29 28,3 19,2   calma 4,7 1018,5 58 - -
16:34 28,0 19,0   calma   1018,5 58 - -
16:39 27,8 19,1   calma   1018,5 59 - -
16:44 27,4 18,9   calma   1018,5 60 - -
16:49 27,5 19,0 4,7 Est 4,7 1018,5 60 - -
16:54 27,4 18,9 4,3 Est 4,3 1018,5 60 - -
16:59 27,3 19,1 4,7 Est 6,9 1018,5 61 - -
17:04 27,3 19,1   calma   1018,5 61 - -
17:09 27,7 19,5   calma 6,4 1018,5 61 - -
17:14 27,6 19,4 5,5 Est 5,5 1017,5 61 - -
17:19 26,9 19,0   calma   1017,5 62 - -
17:24 26,8 19,2   calma   1017,5 63 - -
17:29 27,1 19,4   calma   1017,5 63 - -
17:34 26,9 19,3   calma   1017,5 63 - -
17:39 26,7 19,1   calma 3,2 1017,5 63 - -
17:44 26,8 19,2   calma   1018,5 63 - -
17:49 26,5 19,1   calma 5,0 1018,5 64 - -
17:54 26,5 19,1 3,5 Est 4,0 1018,5 64 - -
17:59 26,4 19,0 1,8 ESE 4,0 1017,5 64 - -
18:04 26,9 19,5   calma   1017,5 64 - -
18:09 26,8 19,4 2,1 SE 6,1 1017,5 64 - -
18:14 26,6 19,2   calma 7,6 1017,5 64 - -
18:19 26,1 18,8   calma   1017,5 64 - -
18:24 25,9 18,8 3,2 Est 3,2 1017,5 65 - -
18:29 25,7 18,9 4,3 ESE 4,3 1018,5 66 - -
18:34 25,4 18,8   calma   1018,5 67 - -
18:39 25,1 18,8   calma   1018,5 68 - -
18:44 24,9 18,8   calma   1018,5 69 - -
18:49 24,8 18,7   calma   1018,5 69 - -
18:54 24,8 18,7   calma   1018,5 69 - -
18:59 24,7 18,9   calma   1018,5 70 - -
19:04 24,6 18,8   calma   1018,5 70 - -
19:09 24,5 18,7   calma   1018,5 70 - -
19:14 24,5 18,7 4,3 ESE 4,3 1018,5 70 - -
19:19 24,4 18,6   calma   1018,5 70 - -
19:24 24,4 18,6 1,4 WSW 4,0 1018,5 70 - -
19:29 24,3 18,7   calma   1018,5 71 - -
19:34 24,3 18,7   calma   1018,5 71 - -
19:39 24,2 18,6   calma   1018,5 71 - -
19:44 24,1 18,7   calma 2,1 1018,5 72 - -
19:49 24,1 18,7   calma 4,0 1018,5 72 - -
19:54 24,1 19,0   calma   1018,5 73 - -
19:59 24,0 18,9   calma   1018,5 73 - -
20:04 23,9 18,8   calma   1018,5 73 - -
20:09 23,8 18,9   calma   1018,5 74 - -
20:14 23,7 19,0   calma 2,6 1018,5 75 - -
20:19 23,5 19,0   calma   1018,5 76 - -
20:24 23,4 18,9   calma   1018,5 76 - -
20:29 23,2 18,9   calma   1018,5 77 - -

Download your copy of this data-set  here

Our weather-data as stored at Weather Underground. Guio original per Jim McMurry. Adaptat per a la plantilla per Leuven-Template.eu

Trobareu la nostra informacio del temps tambe a:

European Weather Network

WeatherCloud

Weather Underground

Meteoclimatic

Equip utilitzat:

Weather-program
Weather Display

Weather-server
RaspberryPI 2

Proveidor

Weather Display

RaspberryPI 2